パンスターズ彗星

C/2024 T3 ( PanSTARRS )

English version
Home page
Updated on March 23, 2025

---------------------------------------------------------------------

・ プロフィール

発見日 2024年10月10日
発見光度 20.0等
発見者 Pan-STARRS 2 telescope (Haleakala)

・ 写真集

・ 軌道要素

Epoch 2025 May 5.0 TT = JDT 2460800.5
T 2025 Mar. 15.23744 TT                                 Pike
q   3.7161887            (2000.0)            P               Q
z  +0.0117246      Peri.  336.88788     +0.46610201     -0.42555885
 +/-0.0000160      Node    74.83221     +0.88385480     +0.18496625
e   0.9564290      Incl.   53.48070     +0.03936500     +0.88582569
From 79 observations 2024 Sept. 8-2025 Jan. 23, mean residual 0".5.

・ 光度変化

        m1 = 10.0 + 5 logΔ + 10.0 log r

---------------------------------------------------------------------

軌道要素はM.P.E.C. 2025-C143に掲載されたものです。
光度グラフはComet for Windowsで作成したものです。

---------------------------------------------------------------------

Copyright(C) Seiichi Yoshida (comet@aerith.net). All rights reserved.